STARLINK-36779, 67869

Orbit data source: Space-Track

STARLINK-36779, 67869 is a payload satellite owned by SpaceX/Seattle (US) in LEO that was launched on Fri, 20 Feb 2026 UTC via an FALCON 9 launch vehicle from the Air Force Eastern Test Range (AFETR). Payload-class satellites include a variety of spacecraft equipped with specific instruments for various scientific and technological missions. These include communications satellites like Starlink; space stations such as the ISS; scientific satellites like the Hubble; Earth observation satellites from companies like Planet Labs, Umbra, and HawkEye 360; GPS; miniature CubeSats for education and research; and military/defense satellites.

Loading next visibility...
Identifier
67869, 2026-034V
Orbit
LEO
Country
Flag of USUS
Related business
Manufacturer
SpaceX/Seattle
Mission
Operational Commercial Communications
Bus & Motor
STARLINK V2MO, Unknown motor
Mass
575 kg wet, ~530 kg dry
Launch date (UTC)
2026-02-20 (4 months ago)
Launch vehicle
FALCON 9
Launch site
Air Force Eastern Test Range (AFETR)
Object type
Payload
Rocket body
Debris
Shape & HBR
Box + 2 Pan, 17.7 m
Radar Cross Section
36.964 m², Large (>1 m²)

Expand to show TLE details & history
Last TLE update: 16 hours ago

TLE from 16 hours ago
0 STARLINK-36779
1 67869U 26034V   26171.18175604  .00023341  00000-0  69895-3 0  9993
2 67869  53.1572  85.6275 0001266  88.9871 271.1277 15.34437981 19754
Epoch: 2026-06-20T04:21Z
TLE epoch observation values (Epoch: 2026-06-20T04:21:43.721Z)
Latitude
-0.00001°
Longitude
111.79526°
Altitude
463.474 km
Speed
7.636 km/s
True Right ascension
05h 42m 30s
True Declination
0° 00' 00"
Sunlit
Object was in daylight at epoch
Visualization orbit readout
Latitude
Unknown
Longitude
Unknown
Altitude
Unknown
Speed
Unknown
Apparent Right ascension
Unknown
Apparent Declination
Unknown
Sunlit
N/A
Visualization observer readout
Local Sidereal Time
07:16:34
Azimuth
Unknown
Elevation
Unknown
Doppler factor
Unknown
Orbital elements
Apogee altitude
463.714 km
Perigee altitude
461.982 km
Semi-major axis
6,840.985 km
Eccentricity
0.00013
Inclination
53.1572°
RAAN
85.6275°
Arg. of periapsis
88.9871°
True anomaly
271.1132°
Mean anomaly
271.1277°
Eccentric anomaly
271.12045°
Mean motion
3.83588 °/min
Orbital period
93.85 mins
BSTAR
0.00069895
Loading maneuver chart data...
Computing Atmospheric mass density...
Loading historical data...
Loading historical data...
Loading historical data...
Loading historical data...
Loading historical data...
Loading historical data...
Loading historical data...

Documentation

Showing up to 5 results
|